Temperature
-3 -2 -2 -2 -2 -3 -3 -3 -3 -4 -4 -4 -5 -5 -5 -4 -5 -5 -5 -5 -4 -4 -4 -4 -4 -4 -4 -4 -4 -3 -3 -3 -2 -2 -2 -1 -1 -1 -1 -1 -1 -0 -0 0
-3 -2 -2 -2 -3 -3 -3 -3 -4 -4 -4 -5 -5 -5 -5 -5 -5 -5 -5 -5 -5 -5 -5 -5 -4 -4 -4 -4 -4 -4 -4 -3 -3 -3 -2 -2 -2 -2 -2 -1 -1 -1 -1 -0
-3 -4 -3 -4 -4 -4 -4 -5 -5 -5 -5 -6 -6 -5 -5 -5 -5 -5 -6 -6 -5 -5 -5 -5 -5 -5 -4 -4 -4 -4 -4 -4 -4 -3 -3 -3 -2 -2 -2 -2 -2 -1 -1 -1
-4 -4 -4 -4 -4 -4 -5 -5 -6 -6 -6 -6 -6 -5 -5 -5 -5 -6 -6 -6 -6 -6 -5 -5 -5 -5 -5 -4 -4 -4 -4 -4 -4 -4 -3 -3 -3 -3 -3 -3 -3 -2 -2 -2
-5 -5 -5 -4 -4 -5 -6 -6 -6 -7 -6 -6 -6 -6 -5 -5 -6 -6 -6 -6 -6 -6 -6 -6 -5 -5 -5 -5 -5 -5 -5 -5 -5 -4 -4 -4 -4 -3 -3 -3 -3 -3 -3 -2
-6 -5 -4 -4 -5 -5 -5 -6 -6 -6 -6 -6 -7 -7 -6 -6 -6 -6 -7 -6 -6 -6 -6 -6 -6 -6 -5 -5 -5 -5 -5 -5 -5 -5 -5 -4 -4 -4 -4 -4 -3 -3 -3 -3
-6 -6 -6 -6 -5 -5 -5 -5 -6 -6 -6 -7 -7 -7 -6 -7 -7 -7 -7 -7 -7 -6 -6 -6 -6 -6 -6 -6 -6 -6 -6 -5 -5 -5 -5 -5 -5 -4 -4 -4 -4 -4 -4 -3
-7 -7 -6 -6 -6 -6 -6 -6 -6 -6 -6 -7 -7 -7 -7 -7 -7 -7 -7 -7 -7 -7 -7 -7 -7 -7 -6 -6 -6 -6 -6 -6 -6 -5 -5 -5 -5 -5 -5 -5 -5 -4 -4 -4
-7 -6 -6 -6 -5 -5 -6 -6 -6 -6 -7 -7 -7 -7 -8 -8 -8 -8 -8 -8 -8 -8 -8 -7 -7 -7 -7 -7 -7 -7 -6 -6 -6 -6 -6 -6 -6 -6 -5 -5 -5 -5 -5 -5
-8 -8 -6 -6 -6 -6 -6 -6 -7 -7 -7 -7 -8 -8 -8 -8 -8 -8 -8 -8 -8 -8 -8 -8 -8 -8 -8 -8 -7 -7 -7 -7 -7 -7 -6 -6 -6 -6 -6 -6 -6 -6 -6 -6
-8 -8 -7 -6 -6 -6 -7 -7 -7 -7 -8 -8 -8 -8 -9 -9 -9 -9 -9 -9 -9 -9 -9 -9 -8 -8 -8 -8 -8 -8 -8 -7 -7 -7 -7 -7 -7 -7 -7 -6 -7 -6 -6 -6
-7 -7 -7 -7 -6 -7 -7 -7 -8 -8 -8 -8 -9 -9 -9 -9 -9 -9 -9 -9 -9 -9 -9 -9 -9 -9 -9 -9 -9 -9 -8 -8 -8 -8 -8 -8 -8 -7 -7 -7 -7 -7 -7 -7
-7 -7 -7 -7 -7 -7 -8 -8 -8 -8 -9 -9 -9 -9 -10 -10 -10 -10 -10 -10 -10 -10 -10 -10 -9 -9 -9 -9 -9 -9 -9 -9 -9 -9 -9 -8 -8 -8 -8 -7 -7 -7 -7 -7
-7 -8 -8 -8 -8 -8 -8 -9 -9 -9 -9 -9 -10 -10 -10 -10 -10 -10 -10 -10 -10 -10 -10 -10 -10 -10 -10 -10 -10 -10 -10 -9 -9 -9 -9 -9 -9 -8 -8 -8 -8 -8 -7 -7
-8 -8 -8 -8 -8 -9 -9 -9 -9 -9 -9 -10 -10 -10 -10 -11 -11 -11 -11 -11 -11 -11 -10 -10 -10 -10 -10 -10 -10 -10 -10 -10 -10 -10 -10 -9 -9 -9 -9 -9 -8 -8 -8 -8
-8 -8 -8 -9 -9 -9 -9 -9 -10 -10 -10 -10 -10 -11 -11 -11 -11 -11 -11 -11 -11 -11 -11 -11 -11 -11 -11 -11 -11 -11 -10 -10 -10 -10 -10 -10 -10 -10 -9 -9 -9 -9 -9 -8
-9 -9 -9 -9 -9 -9 -10 -10 -10 -10 -11 -11 -11 -11 -11 -11 -11 -11 -11 -11 -11 -11 -11 -11 -11 -11 -11 -11 -11 -11 -11 -11 -11 -11 -11 -10 -10 -10 -10 -10 -10 -10 -9 -9
-9 -9 -9 -10 -10 -10 -10 -10 -10 -11 -11 -11 -11 -11 -12 -12 -12 -12 -12 -12 -12 -12 -12 -12 -12 -12 -12 -12 -12 -11 -11 -11 -11 -11 -11 -11 -11 -11 -11 -10 -10 -10 -10 -10
-9 -9 -10 -10 -10 -10 -10 -11 -11 -11 -11 -11 -12 -12 -12 -12 -12 -12 -12 -12 -12 -12 -12 -12 -12 -12 -12 -12 -12 -12 -12 -12 -12 -11 -11 -11 -11 -11 -11 -11 -11 -10 -10 -10
-9 -10 -10 -10 -10 -11 -11 -11 -11 -11 -11 -12 -12 -12 -12 -12 -12 -13 -12 -12 -13 -13 -13 -13 -13 -12 -12 -12 -12 -12 -12 -12 -12 -12 -12 -12 -12 -12 -11 -11 -11 -11 -11 -11
-10 -10 -10 -10 -11 -11 -11 -11 -12 -12 -12 -12 -12 -12 -12 -12 -13 -13 -13 -13 -13 -13 -13 -13 -13 -13 -13 -13 -13 -12 -12 -12 -12 -12 -12 -12 -12 -12 -12 -12 -11 -11 -11 -11
-10 -10 -11 -11 -11 -11 -11 -12 -12 -12 -12 -12 -12 -13 -13 -13 -13 -13 -13 -13 -13 -13 -13 -13 -13 -13 -13 -13 -13 -13 -13 -13 -13 -13 -13 -12 -12 -12 -12 -12 -12 -12 -12 -12
-11 -11 -11 -11 -11 -12 -12 -12 -12 -12 -12 -12 -13 -13 -13 -13 -13 -13 -13 -13 -13 -13 -13 -13 -13 -13 -13 -13 -13 -13 -13 -13 -13 -13 -13 -13 -13 -13 -13 -12 -12 -12 -12 -12
-11 -11 -11 -12 -12 -12 -12 -12 -12 -12 -13 -13 -13 -13 -13 -13 -13 -13 -13 -13 -13 -14 -13 -13 -13 -13 -13 -13 -13 -13 -13 -13 -13 -13 -13 -13 -13 -13 -13 -13 -13 -13 -12 -12
-11 -12 -12 -12 -12 -12 -12 -13 -13 -13 -13 -13 -13 -13 -13 -13 -14 -13 -14 -14 -14 -14 -14 -14 -14 -14 -13 -13 -13 -13 -13 -13 -13 -13 -13 -13 -13 -13 -13 -13 -13 -13 -13 -13
-12 -12 -12 -13 -13 -13 -13 -13 -13 -13 -13 -13 -13 -13 -13 -14 -14 -14 -14 -14 -14 -14 -14 -14 -14 -14 -14 -14 -14 -14 -14 -14 -14 -14 -13 -13 -13 -13 -13 -13 -13 -13 -13 -13
-12 -12 -13 -13 -13 -13 -13 -13 -13 -13 -14 -14 -13 -14 -14 -14 -14 -14 -14 -14 -14 -14 -14 -14 -14 -14 -14 -14 -14 -14 -14 -14 -14 -14 -14 -14 -13 -13 -13 -13 -13 -13 -13 -13
Wind_Speed
7 6 4 5 6 5 6 6 7 8 8 9 7 7 8 7 8 8 8 8 8 9 9 8 8 8 8 9 9 9 8 8 8 8 7 7 6 6 5 4 4 3 2 2
4 3 4 6 6 6 6 5 7 8 10 6 6 5 6 7 8 8 9 9 9 9 10 10 9 9 9 9 9 8 8 8 8 8 8 7 6 6 5 4 4 3 2 2
4 4 4 6 6 5 3 3 4 6 6 5 6 7 7 7 7 8 9 10 10 10 9 10 9 8 9 9 9 8 7 8 8 8 8 7 6 5 5 5 4 3 3 2
2 3 5 5 1 2 3 4 4 5 5 5 7 8 7 5 5 7 9 10 10 9 9 9 8 8 8 8 8 7 7 7 8 8 8 8 7 5 5 4 4 3 3 3
1 3 7 5 2 2 2 5 4 5 6 6 6 6 4 4 4 6 8 9 9 9 8 8 8 8 8 8 7 7 7 7 8 7 8 8 7 6 5 4 4 4 3 3
2 3 6 4 1 0 2 5 2 2 5 6 5 5 5 6 7 8 8 8 8 8 8 8 8 7 7 8 7 7 8 8 7 7 7 7 7 6 5 4 4 4 4 4
4 5 7 5 2 2 2 5 3 3 4 4 3 6 7 9 8 8 8 9 8 8 7 8 8 6 7 7 8 8 8 7 7 7 7 6 6 5 5 5 4 4 5 5
4 4 7 2 3 4 6 2 2 3 4 5 6 8 8 8 9 9 9 9 8 8 8 8 7 6 7 8 8 7 7 7 7 7 6 6 5 5 4 4 4 4 4 5
7 7 3 3 4 3 2 3 3 3 5 5 6 7 8 8 8 8 9 9 8 8 9 8 7 6 8 9 8 7 7 7 6 7 6 6 5 5 4 3 3 4 3 4
5 7 5 4 4 3 2 3 4 4 5 4 6 7 8 8 8 8 8 8 8 8 9 9 8 8 7 8 7 7 7 6 6 5 6 5 5 4 4 3 3 3 3 3
6 6 5 4 4 4 3 3 4 4 4 4 5 6 6 7 8 8 8 8 7 8 9 10 9 9 9 7 7 6 6 6 5 5 5 5 5 4 4 3 3 4 3 2
6 5 4 5 3 2 3 4 4 4 5 4 4 6 6 7 7 7 7 7 8 8 9 9 9 9 8 7 6 6 6 5 4 4 4 4 4 5 7 6 7 8 7 6
4 2 3 4 3 1 2 4 4 4 5 6 5 5 6 6 6 6 7 7 8 8 9 9 8 9 8 7 7 6 5 5 4 4 4 4 4 4 5 6 7 8 8 8
2 1 2 2 3 2 2 2 3 3 4 4 4 5 5 6 6 7 7 7 8 8 8 7 8 8 8 7 7 6 6 6 5 4 4 4 4 4 4 4 5 5 7 8
2 2 4 3 2 2 2 2 3 4 5 5 4 5 6 6 7 8 7 8 8 8 8 8 8 9 8 7 7 6 6 5 5 4 4 4 4 4 4 4 4 4 4 6
3 2 2 2 3 3 3 3 4 5 5 6 6 6 6 6 7 7 7 7 7 8 8 8 8 9 8 7 7 5 5 8 7 4 4 4 4 4 3 4 4 4 4 4
1 2 2 3 4 4 4 4 4 5 5 6 7 7 7 6 7 7 7 7 6 7 8 8 8 8 8 7 6 5 5 5 7 5 4 4 4 4 3 3 3 4 4 5
3 3 4 4 4 5 5 5 4 5 5 6 6 6 6 6 7 8 8 8 7 7 8 7 7 8 7 7 6 5 4 4 4 4 4 4 4 3 3 3 3 3 4 4
2 2 3 3 3 3 4 5 5 5 5 5 6 6 6 6 6 7 7 7 7 8 7 7 11 8 7 7 7 4 4 4 4 4 4 5 5 4 3 3 3 3 4 4
2 2 3 3 3 3 4 5 5 5 5 5 5 6 6 6 6 7 6 6 5 6 7 8 8 7 6 6 8 4 4 3 3 4 4 3 3 4 4 4 3 3 3 3
3 3 3 4 4 4 4 5 5 6 6 5 5 6 7 7 6 6 5 6 6 6 7 10 7 5 5 6 6 3 3 3 3 3 3 3 3 4 4 4 4 4 3 3
3 3 4 4 4 5 5 4 4 6 6 6 6 6 6 7 7 6 5 5 6 10 7 5 5 7 8 7 3 3 3 3 3 3 3 3 3 3 4 4 4 4 4 3
3 3 4 4 4 5 6 5 5 5 6 6 7 7 7 7 6 6 6 5 6 10 7 5 8 11 9 4 3 3 3 3 3 3 3 3 3 3 3 4 3 4 3 4
3 3 4 4 3 4 5 6 5 5 6 6 6 6 6 6 5 4 5 9 10 10 6 8 12 11 8 3 3 3 3 3 3 3 3 3 3 3 3 3 4 4 4 4
3 3 3 4 4 4 5 6 6 6 6 5 6 5 4 4 5 6 5 6 9 9 6 8 11 10 6 4 4 4 4 4 4 3 3 3 3 3 3 3 3 4 4 4
3 3 3 4 4 4 4 4 4 5 5 6 6 5 4 4 5 5 5 5 7 9 6 5 6 6 4 4 4 4 4 4 4 4 3 3 4 4 4 4 4 4 4 4
3 3 3 4 3 3 4 4 5 5 5 6 7 5 5 5 5 5 6 5 5 5 5 5 5 4 4 4 4 4 4 4 4 4 4 4 4 4 4 4 4 5 5 5
Wind_Direction
258 267 254 258 269 246 220 222 234 261 265 282 300 297 302 311 318 326 329 330 329 329 326 324 325 327 328 328 329 328 329 331 328 327 326 325 327 324 322 321 315 300 288 284
284 279 268 272 273 258 249 244 248 268 276 282 295 304 310 315 319 323 321 322 323 325 325 321 321 323 325 325 325 325 325 328 330 331 331 330 328 327 328 328 328 319 300 292
281 315 328 276 252 224 232 225 217 244 265 311 314 311 306 305 312 314 315 317 318 318 315 312 311 314 316 317 320 323 325 327 331 333 332 329 328 332 332 331 332 329 317 306
286 357 261 252 239 204 232 251 241 260 284 295 289 295 285 283 299 310 317 317 315 314 312 309 306 313 314 318 321 323 325 328 331 334 329 329 334 332 329 335 336 335 332 321
196 264 276 288 249 176 223 273 243 258 285 299 312 313 295 302 316 307 306 305 305 304 306 308 307 311 317 320 322 325 326 327 329 329 327 329 332 331 329 337 342 343 339 347
167 232 256 261 271 157 101 281 280 265 284 303 336 321 299 323 322 313 312 311 311 313 315 315 312 316 317 317 319 320 320 321 323 324 324 324 325 327 334 339 342 346 353 358
202 236 264 260 257 122 185 269 301 272 280 288 264 258 288 311 316 316 315 316 317 317 316 314 316 318 315 314 312 314 318 321 323 325 324 324 328 335 343 347 354 2 2 2
180 219 258 228 140 187 231 272 278 277 280 281 279 289 303 312 318 324 325 325 325 323 320 321 323 322 315 312 316 322 321 322 323 327 329 332 336 339 347 354 0 5 7 4
199 221 250 201 206 231 228 253 270 279 291 291 295 301 309 314 317 321 324 324 326 324 322 325 327 325 317 318 324 325 324 325 327 331 333 335 335 338 350 358 357 353 358 359
252 266 264 252 252 267 258 263 285 290 294 295 294 299 307 313 318 322 323 325 327 328 327 326 328 327 319 321 325 323 323 326 330 334 335 340 337 338 343 347 345 344 350 346
256 278 300 276 246 253 276 290 300 304 299 294 294 301 304 308 313 316 320 324 328 328 325 323 326 326 326 328 329 326 324 327 333 333 331 333 336 338 336 334 334 339 331 329
237 238 230 265 270 254 268 285 289 299 308 308 299 298 306 306 308 312 316 322 325 326 324 324 328 327 328 331 331 327 326 333 334 332 330 333 334 339 347 347 351 355 354 352
246 270 245 265 282 259 260 279 295 294 291 300 304 300 304 306 311 315 318 323 322 321 321 323 327 328 330 332 332 329 324 326 327 330 330 331 331 333 335 345 356 1 359 357
253 272 276 269 276 292 290 299 308 308 303 297 300 307 309 310 313 317 318 318 316 318 322 324 326 326 328 330 330 330 328 326 327 323 323 323 324 326 326 329 338 345 351 355
270 245 247 279 293 307 311 315 319 315 315 315 314 314 315 313 312 313 315 318 321 324 325 328 327 325 328 330 331 329 329 328 325 325 325 324 325 328 329 331 333 334 340 347
302 296 279 282 287 301 312 311 306 306 311 312 314 313 309 306 306 310 316 322 323 322 322 323 322 324 329 331 331 330 327 329 333 329 328 328 329 331 332 332 334 335 336 337
274 296 294 292 292 296 296 291 288 294 302 304 305 308 310 312 314 315 318 319 314 309 312 315 317 321 326 327 324 323 321 324 332 332 325 322 324 325 322 322 325 327 329 332
227 249 253 254 269 284 295 297 295 297 298 300 307 311 311 310 308 309 312 316 318 317 317 317 318 319 323 327 325 319 318 319 324 323 322 321 324 328 327 325 325 325 327 333
276 273 279 279 278 279 287 293 297 298 301 306 307 303 301 299 298 301 307 313 315 316 315 316 324 328 325 323 326 316 315 319 324 326 325 327 335 336 331 325 323 324 328 335
316 309 305 303 305 295 293 297 300 301 302 301 299 300 302 301 301 303 305 300 289 288 298 310 316 316 317 316 323 317 318 320 324 326 328 328 328 329 329 327 325 324 328 331
312 313 314 313 312 308 301 299 301 302 306 304 295 294 296 299 300 299 301 304 304 306 311 317 321 317 315 316 320 321 322 323 322 318 317 319 322 323 323 325 327 328 329 331
304 305 305 308 309 310 311 307 299 299 303 304 299 296 298 301 304 301 286 282 298 315 321 311 310 316 322 326 331 325 320 317 314 313 313 315 316 315 317 320 323 326 328 330
301 300 302 303 302 304 309 307 300 299 299 300 301 300 298 297 299 299 304 303 307 315 320 310 316 322 330 344 335 323 318 314 310 309 308 308 306 306 308 314 318 319 319 319
308 306 302 305 307 310 309 309 308 303 295 295 293 293 295 300 299 283 285 306 317 317 316 315 323 326 335 338 323 316 311 305 300 297 299 302 302 302 303 305 308 310 310 310
306 304 306 311 311 304 301 308 311 310 310 309 306 303 297 289 290 300 302 306 314 319 315 318 324 327 331 314 309 304 301 298 297 298 295 300 300 299 298 297 296 298 301 300
310 306 300 294 293 298 305 309 310 311 313 313 313 310 307 303 299 301 303 304 305 315 316 309 311 317 314 308 304 302 300 304 311 313 305 300 296 294 293 294 294 292 293 291
313 313 314 314 312 309 307 305 305 308 310 308 308 309 311 312 311 311 310 310 310 311 310 310 309 307 306 305 303 302 301 299 298 296 295 291 288 286 286 286 287 288 288 288
Height
1541 1538 1538 1537 1536 1537 1538 1537 1538 1532 1530 1525 1524 1523 1520 1518 1515 1512 1509 1507 1504 1501 1498 1495 1492 1489 1487 1483 1480 1477 1474 1471 1468 1466 1464 1462 1460 1458 1457 1456 1455 1454 1454 1454
1540 1537 1537 1535 1534 1534 1533 1533 1533 1530 1527 1523 1522 1520 1518 1516 1513 1511 1508 1506 1503 1500 1497 1493 1490 1487 1484 1481 1478 1475 1472 1469 1466 1464 1461 1459 1457 1455 1454 1452 1452 1451 1450 1450
1542 1540 1537 1536 1533 1531 1531 1530 1530 1529 1527 1522 1521 1518 1517 1515 1512 1510 1507 1505 1501 1498 1495 1492 1489 1486 1482 1479 1476 1473 1470 1467 1464 1461 1459 1457 1455 1453 1451 1450 1449 1448 1447 1447
1546 1544 1543 1533 1529 1529 1529 1528 1528 1526 1523 1522 1520 1517 1515 1513 1511 1508 1505 1502 1499 1496 1492 1490 1487 1484 1481 1478 1474 1471 1469 1465 1463 1460 1458 1455 1453 1451 1450 1448 1447 1445 1445 1445
1547 1547 1538 1531 1528 1529 1530 1527 1524 1524 1522 1520 1518 1515 1512 1511 1510 1507 1504 1501 1498 1494 1491 1487 1484 1481 1478 1475 1472 1469 1467 1464 1461 1459 1456 1454 1452 1450 1449 1447 1445 1444 1444 1443
1548 1544 1537 1529 1527 1526 1529 1528 1522 1521 1520 1519 1518 1517 1513 1510 1508 1505 1502 1499 1495 1491 1488 1485 1482 1479 1476 1473 1470 1467 1465 1462 1460 1458 1455 1453 1451 1449 1448 1446 1445 1444 1443 1442
1547 1545 1536 1528 1526 1527 1532 1526 1521 1520 1519 1518 1517 1516 1512 1508 1505 1502 1499 1496 1492 1489 1486 1483 1480 1477 1474 1471 1468 1466 1463 1461 1459 1456 1454 1452 1450 1448 1447 1446 1444 1443 1442 1441
1545 1545 1536 1524 1524 1526 1524 1520 1519 1518 1517 1516 1514 1512 1509 1506 1503 1499 1496 1493 1490 1486 1483 1480 1477 1474 1471 1469 1467 1464 1461 1459 1457 1455 1453 1451 1449 1448 1446 1445 1443 1442 1441 1440
1534 1530 1523 1521 1520 1520 1519 1518 1517 1516 1515 1513 1511 1509 1506 1503 1500 1497 1493 1490 1487 1483 1480 1478 1475 1472 1469 1467 1464 1462 1459 1457 1455 1453 1452 1450 1448 1446 1445 1444 1443 1442 1441 1440
1528 1522 1519 1519 1518 1518 1517 1516 1515 1514 1513 1511 1508 1506 1503 1500 1497 1494 1491 1488 1484 1481 1477 1475 1472 1470 1467 1465 1462 1460 1457 1455 1453 1452 1450 1449 1447 1446 1445 1444 1443 1441 1440 1440
1524 1519 1517 1515 1515 1515 1514 1513 1513 1511 1510 1508 1506 1503 1501 1498 1495 1492 1489 1485 1482 1479 1475 1472 1470 1467 1465 1462 1460 1457 1455 1453 1452 1450 1449 1448 1446 1445 1444 1443 1443 1442 1441 1440
1519 1515 1516 1514 1513 1513 1512 1511 1510 1508 1506 1505 1503 1501 1498 1495 1492 1489 1486 1483 1480 1477 1473 1471 1468 1465 1462 1460 1458 1456 1454 1452 1450 1449 1448 1447 1445 1444 1443 1443 1442 1441 1440 1439
1514 1513 1512 1511 1511 1510 1509 1508 1507 1506 1504 1502 1500 1498 1495 1492 1490 1487 1484 1481 1478 1474 1471 1469 1466 1463 1460 1458 1456 1454 1452 1450 1449 1448 1447 1445 1444 1443 1441 1441 1440 1439 1438 1437
1512 1511 1510 1509 1509 1508 1507 1506 1504 1503 1502 1500 1497 1495 1492 1490 1487 1484 1481 1478 1475 1472 1469 1466 1464 1461 1459 1456 1454 1453 1451 1449 1448 1447 1446 1444 1443 1442 1441 1440 1438 1437 1437 1436
1509 1509 1508 1507 1506 1506 1505 1503 1502 1500 1499 1497 1494 1492 1490 1487 1484 1482 1479 1476 1473 1470 1467 1464 1462 1459 1457 1455 1453 1451 1450 1448 1447 1446 1444 1443 1442 1441 1440 1439 1438 1436 1435 1434
1507 1507 1506 1505 1504 1503 1502 1501 1499 1497 1496 1494 1492 1489 1487 1485 1482 1479 1477 1474 1471 1468 1465 1462 1460 1458 1455 1453 1451 1449 1448 1447 1446 1444 1443 1442 1441 1440 1439 1437 1436 1435 1434 1433
1505 1504 1504 1503 1502 1501 1500 1498 1497 1495 1493 1491 1489 1487 1484 1482 1479 1477 1474 1472 1469 1466 1464 1461 1458 1456 1454 1452 1450 1448 1447 1445 1444 1443 1442 1441 1440 1439 1437 1436 1435 1434 1433 1433
1504 1503 1502 1501 1500 1498 1497 1496 1494 1492 1490 1488 1486 1484 1482 1479 1476 1474 1472 1469 1467 1464 1462 1459 1457 1455 1453 1450 1449 1447 1445 1444 1442 1441 1440 1439 1438 1437 1436 1435 1434 1433 1432 1431
1502 1501 1500 1499 1498 1496 1495 1493 1491 1489 1487 1485 1483 1481 1479 1477 1474 1472 1469 1467 1464 1461 1459 1457 1455 1453 1450 1449 1447 1445 1444 1442 1441 1440 1438 1437 1436 1435 1434 1433 1432 1431 1430 1429
1500 1499 1498 1497 1496 1494 1492 1490 1489 1487 1485 1483 1480 1478 1476 1474 1472 1469 1467 1464 1462 1459 1457 1455 1452 1450 1448 1446 1445 1444 1442 1441 1439 1438 1437 1436 1435 1433 1432 1431 1430 1429 1428 1428
1498 1497 1496 1495 1493 1492 1490 1488 1486 1484 1482 1480 1478 1475 1473 1471 1469 1466 1464 1461 1459 1457 1455 1452 1450 1448 1446 1444 1443 1442 1440 1439 1438 1436 1435 1434 1433 1431 1430 1429 1428 1427 1426 1426
1496 1495 1494 1492 1491 1489 1487 1485 1483 1481 1479 1477 1475 1472 1470 1468 1466 1463 1461 1459 1457 1455 1452 1450 1448 1446 1445 1443 1441 1440 1438 1437 1435 1434 1433 1432 1431 1429 1428 1427 1426 1425 1425 1424
1495 1493 1492 1490 1488 1486 1485 1483 1481 1478 1476 1474 1472 1469 1467 1465 1463 1460 1458 1456 1454 1452 1450 1448 1446 1444 1443 1441 1439 1437 1436 1435 1433 1432 1431 1430 1429 1427 1426 1426 1425 1424 1423 1422
1493 1491 1489 1488 1486 1484 1482 1480 1478 1476 1474 1471 1469 1467 1464 1462 1460 1458 1456 1453 1451 1449 1447 1445 1444 1442 1440 1439 1437 1435 1434 1432 1431 1430 1429 1428 1426 1425 1425 1424 1423 1422 1421 1420
1490 1489 1487 1485 1483 1481 1480 1477 1475 1473 1471 1468 1466 1464 1462 1460 1457 1455 1453 1451 1449 1447 1445 1443 1441 1440 1438 1437 1435 1433 1432 1430 1429 1428 1427 1426 1424 1423 1422 1422 1421 1420 1419 1418
1488 1487 1485 1483 1482 1480 1477 1475 1473 1471 1468 1465 1463 1461 1459 1457 1455 1452 1450 1448 1446 1444 1442 1441 1439 1437 1436 1434 1433 1431 1430 1428 1427 1426 1425 1424 1422 1421 1420 1419 1418 1417 1416 1415
1486 1484 1483 1481 1479 1478 1475 1473 1471 1468 1466 1463 1461 1459 1457 1454 1452 1450 1448 1446 1444 1442 1440 1438 1437 1435 1434 1432 1431 1429 1428 1426 1425 1424 1422 1421 1420 1419 1418 1417 1416 1415 1414 1413